Location: Clover
(42.5131°N, 114.6874°W)
Time: 14:18:33
(UTC+00:00)

Transit 2A Rocket - Pass Details

Date: 11 November 2024
Orbit: 585 x 904 km, 66.7° (Epoch: 02 December)

Event Time Altitude Azimuth Distance (km) Brightness Sun altitude
Rises 01:33:49 0° 332° (NNW) 3,286 8.5 -13.7°
Reaches altitude 10° 01:36:25 10° 338° (NNW) 2,301 7.6 -14.2°
Maximum altitude 01:41:30 49° 53° (NE) 914 5.0 -15.1°
Enters shadow 01:45:06 16° 125° (SE) 1,728 6.4 -15.8°
